Weather History for Rolla, ND

Change the Weather History Date:

Wednesday, March 27, 2013

  Actual Average (KRUG) Record (KRUG)
Temperature  
Mean Temperature 8 °F -  
Max Temperature 21 °F 40 °F 68 °F (1986)
Min Temperature -4 °F 22 °F -11 °F (1964)
Degree Days  
Heating Degree Days 56    
Moisture  
Dew Point 8 °F    
Average Humidity 95    
Maximum Humidity 100    
Minimum Humidity 78    
Precipitation  
Precipitation 0.00 in - - ()
Sea Level Pressure  
Sea Level Pressure 30.23 in    
Wind  
Wind Speed 6 mph (South)    
Max Wind Speed 10 mph    
Max Gust Speed -    
Visibility 7 miles    
Events Fog , Snow    
Averages and records for this station are not official NWS values.
T = Trace of Precipitation, MM = Missing Value Source: NWS Daily Summary

Daily Weather History Graph

Daily Weather History Graph

Search for Another Location

Airport:

Trip Planner

Search our weather history database for the weather conditions in past years. The results will help you decide how hot, cold, wet, or windy it might be!

Date:

Astronomy

Mar. 27, 2013 Rise Set
Actual Time 7:25 AM CDT 8:02 PM CDT
Civil Twilight 6:54 AM CDT 8:34 PM CDT
Nautical Twilight 6:16 AM CDT 9:12 PM CDT
Astronomical Twilight 5:36 AM CDT 9:51 PM CDT
Moon 8:55 PM CDT (3/27) 7:13 AM CDT (3/27)
Length of Visible Light 13h 40m
Length of Day
12h 36m
Full, 100% of the Moon is Illuminated
Mar 27
Full
Apr 2
Last Quarter
Apr 10
New
Apr 18
First Quarter
Apr 25
Full

Hourly Weather History & Observations

Time (CDT) Temp. Windchill Dew Point Humidity Pressure Visibility Wind Dir Wind Speed Gust Speed Precip Events Conditions
12:15 AM -4.0 °F -14.6 °F -7.6 °F 85% 30.23 in 10.0 mi SW 4.6 mph - N/A   Clear
12:35 AM -4.0 °F -14.6 °F -9.4 °F 78% 30.23 in 10.0 mi SSW 4.6 mph - N/A   Clear
12:55 AM -4.0 °F -14.6 °F -7.6 °F 85% 30.23 in 7.0 mi SW 4.6 mph - N/A   Clear
1:15 AM -4.0 °F -16.3 °F -7.6 °F 85% 30.23 in 7.0 mi SSW 5.8 mph - N/A   Clear
1:35 AM -4.0 °F -16.3 °F -7.6 °F 85% 30.23 in 10.0 mi SSW 5.8 mph - N/A Snow Light Snow
1:55 AM -2.2 °F -15.6 °F -5.8 °F 85% 30.23 in 10.0 mi SSW 6.9 mph - N/A   Clear
2:15 AM 1.4 °F -12.5 °F -0.4 °F 92% 30.23 in 10.0 mi SSW 8.1 mph - N/A   Clear
2:35 AM 3.2 °F -12.2 °F 1.4 °F 92% 30.23 in 10.0 mi SSW 10.4 mph - N/A Snow Light Snow
2:55 AM 1.4 °F -13.5 °F -0.4 °F 92% 30.22 in 10.0 mi SSW 9.2 mph - N/A   Clear
3:15 AM 1.4 °F -13.5 °F -0.4 °F 92% 30.22 in 10.0 mi SSW 9.2 mph - N/A Snow Light Snow
3:55 AM 5.0 °F -8.1 °F 1.4 °F 85% 30.22 in 3.0 mi SSW 8.1 mph - N/A   Partly Cloudy
4:15 AM -0.4 °F -13.4 °F -0.4 °F 100% 30.22 in 0.5 mi SSW 6.9 mph - N/A Fog Light Freezing Fog
4:35 AM 1.4 °F -9.9 °F -0.4 °F 92% 30.21 in 8.0 mi SSW 5.8 mph - N/A   Mostly Cloudy
4:55 AM -0.4 °F -13.4 °F -0.4 °F 100% 30.21 in 10.0 mi South 6.9 mph - N/A   Partly Cloudy
5:15 AM 5.0 °F -6.9 °F 3.2 °F 92% 30.21 in 7.0 mi SSW 6.9 mph - N/A Snow Light Snow
5:35 AM 5.0 °F -5.6 °F 3.2 °F 92% 30.21 in 0.8 mi SSW 5.8 mph - N/A Snow Light Snow
5:55 AM 1.4 °F -11.3 °F -0.4 °F 92% 30.21 in 1.5 mi SSW 6.9 mph - N/A   Mostly Cloudy
6:15 AM 5.0 °F -5.6 °F 3.2 °F 92% 30.21 in 2.0 mi SSW 5.8 mph - N/A   Overcast
6:35 AM 1.4 °F -8.3 °F -0.4 °F 92% 30.21 in 1.0 mi SSW 4.6 mph - N/A   Overcast
6:55 AM 3.2 °F -10.3 °F 1.4 °F 92% 30.22 in 0.5 mi South 8.1 mph - N/A Fog Light Freezing Fog
7:15 AM 1.4 °F -11.3 °F -0.4 °F 92% 30.22 in 9.0 mi SSW 6.9 mph - N/A Snow Light Snow
7:35 AM 1.4 °F -11.3 °F -0.4 °F 92% 30.22 in 0.8 mi South 6.9 mph - N/A   Overcast
7:55 AM 1.4 °F -11.3 °F -0.4 °F 92% 30.23 in 0.2 mi SSW 6.9 mph - N/A Snow Heavy Snow
8:15 AM 1.4 °F -12.5 °F -0.4 °F 92% 30.23 in 1.2 mi SSW 8.1 mph - N/A   Overcast
8:35 AM 5.0 °F -8.1 °F 3.2 °F 92% 30.23 in 0.2 mi SSW 8.1 mph - N/A Fog Light Freezing Fog
8:55 AM 5.0 °F -6.9 °F 3.2 °F 92% 30.23 in 0.2 mi South 6.9 mph - N/A Snow Heavy Snow
9:15 AM 5.0 °F -8.1 °F 1.4 °F 85% 30.23 in 0.2 mi SSW 8.1 mph - N/A Snow Heavy Snow
9:35 AM 5.0 °F -8.1 °F 1.4 °F 85% 30.23 in 0.8 mi SSW 8.1 mph - N/A   Overcast
9:55 AM 5.0 °F -9.1 °F 3.2 °F 92% 30.23 in 0.8 mi SSW 9.2 mph - N/A   Overcast
10:15 AM 6.8 °F -5.9 °F 5.0 °F 92% 30.24 in 0.8 mi South 8.1 mph - N/A Snow Light Snow
10:35 AM 8.6 °F -4.7 °F 6.8 °F 92% 30.24 in 1.8 mi SSW 9.2 mph - N/A Snow Light Snow
10:55 AM 8.6 °F -3.7 °F 8.6 °F 100% 30.24 in 3.0 mi SSW 8.1 mph - N/A   Overcast
11:15 AM 10.4 °F -0.4 °F 10.4 °F 100% 30.24 in 7.0 mi SSW 6.9 mph - N/A   Mostly Cloudy
11:35 AM 12.2 °F -1.0 °F 12.2 °F 100% 30.24 in 10.0 mi SSW 10.4 mph - N/A   Clear
11:55 AM 14.0 °F 2.9 °F 14.0 °F 100% 30.24 in 10.0 mi SSW 8.1 mph - N/A   Clear
12:15 PM 14.0 °F 2.9 °F 14.0 °F 100% 30.24 in 10.0 mi SSW 8.1 mph - N/A   Clear
12:35 PM 15.8 °F 4.2 °F 15.8 °F 100% 30.24 in 10.0 mi SSW 9.2 mph - N/A   Clear
12:55 PM 15.8 °F 5.1 °F 15.8 °F 100% 30.24 in 10.0 mi South 8.1 mph - N/A   Clear
1:15 PM 15.8 °F 6.1 °F 15.8 °F 100% 30.24 in 10.0 mi South 6.9 mph - N/A   Clear
1:35 PM 17.6 °F 6.4 °F 17.6 °F 100% 30.25 in 10.0 mi SSW 9.2 mph - N/A   Clear
1:55 PM 17.6 °F 7.3 °F 17.6 °F 100% 30.24 in 10.0 mi SSW 8.1 mph - N/A   Clear
2:15 PM 17.6 °F 7.3 °F 17.6 °F 100% 30.24 in 10.0 mi SSW 8.1 mph - N/A   Clear
2:35 PM 19.4 °F 11.5 °F 19.4 °F 100% 30.24 in 10.0 mi South 5.8 mph - N/A   Clear
2:55 PM 19.4 °F 9.5 °F 19.4 °F 100% 30.23 in 10.0 mi SSE 8.1 mph - N/A   Clear
3:15 PM 19.4 °F 10.4 °F 19.4 °F 100% 30.23 in 10.0 mi South 6.9 mph - N/A   Clear
3:35 PM 19.4 °F 11.5 °F 19.4 °F 100% 30.23 in 10.0 mi SSE 5.8 mph - N/A   Clear
3:55 PM 19.4 °F 12.8 °F 19.4 °F 100% 30.23 in 10.0 mi South 4.6 mph - N/A   Clear
4:15 PM 21.2 °F 14.9 °F 19.4 °F 93% 30.23 in 10.0 mi South 4.6 mph - N/A   Clear
4:35 PM 21.2 °F 14.9 °F 17.6 °F 86% 30.23 in 10.0 mi SE 4.6 mph - N/A   Clear
4:55 PM 19.4 °F 11.5 °F 17.6 °F 93% 30.22 in 10.0 mi SE 5.8 mph - N/A   Clear
5:15 PM 19.4 °F 11.5 °F 17.6 °F 93% 30.22 in 10.0 mi ESE 5.8 mph - N/A   Clear
5:35 PM 19.4 °F 11.5 °F 17.6 °F 93% 30.22 in 10.0 mi SSE 5.8 mph - N/A   Clear
5:55 PM 17.6 °F 9.3 °F 17.6 °F 100% 30.22 in 10.0 mi SSE 5.8 mph - N/A   Clear
6:15 PM 17.6 °F 9.3 °F 15.8 °F 93% 30.22 in 10.0 mi SSE 5.8 mph - N/A   Clear
6:35 PM 17.6 °F 9.3 °F 15.8 °F 93% 30.22 in 10.0 mi SSE 5.8 mph - N/A   Clear
6:55 PM 17.6 °F - 15.8 °F 93% 30.22 in 10.0 mi Calm Calm - N/A   Clear
7:15 PM 17.6 °F - 14.0 °F 86% 30.22 in 10.0 mi Calm Calm - N/A   Clear
7:35 PM 17.6 °F - 15.8 °F 93% 30.22 in 10.0 mi Calm Calm - N/A   Clear
7:55 PM 15.8 °F - 15.8 °F 100% 30.22 in 10.0 mi Calm Calm - N/A   Clear
8:15 PM 14.0 °F - 14.0 °F 100% 30.21 in 10.0 mi Calm Calm - N/A   Clear
8:35 PM 14.0 °F - 14.0 °F 100% 30.21 in 10.0 mi Calm Calm - N/A   Clear
8:55 PM 14.0 °F - 14.0 °F 100% 30.21 in 10.0 mi Calm Calm - N/A   Clear
9:15 PM 15.8 °F - 15.8 °F 100% 30.21 in 8.0 mi Calm Calm - N/A   Clear
9:35 PM 15.8 °F 10.2 °F 15.8 °F 100% 30.21 in 5.0 mi SSE 3.5 mph - N/A   Clear
9:55 PM 15.8 °F 8.6 °F 15.8 °F 100% 30.22 in 10.0 mi SSE 4.6 mph - N/A   Clear
10:15 PM 14.0 °F 3.9 °F 14.0 °F 100% 30.22 in 10.0 mi SSE 6.9 mph - N/A   Clear
10:35 PM 14.0 °F 5.1 °F 14.0 °F 100% 30.22 in 10.0 mi South 5.8 mph - N/A   Clear
10:55 PM 10.4 °F 2.2 °F 10.4 °F 100% 30.22 in 8.0 mi South 4.6 mph - N/A   Clear
11:15 PM 10.4 °F 0.8 °F 10.4 °F 100% 30.22 in 7.0 mi South 5.8 mph - N/A   Clear
11:35 PM 8.6 °F 0.1 °F 8.6 °F 100% 30.22 in 1.0 mi South 4.6 mph - N/A   Clear
11:55 PM 6.8 °F -4.8 °F 6.8 °F 100% 30.21 in 0.2 mi SSW 6.9 mph - N/A Fog Light Freezing Fog